Location: Newark
(46.7636°N, 1.8358°W)
Time: 15:54:58
(UTC+00:00)

S-56A Canister/Altair - Visible Passes

Search period start: 22 October 2019 00:00
Search period end: 01 November 2019 00:00
Orbit: 633 x 2499 km, 38.9° (Epoch: 22 October)

Date Brightness Start Highest point End Pass type
(mag) Time Alt. Az. Time Alt. Az. Time Alt. Az.
22 Oct 9.2 03:11:06 40° SE 03:11:06 40° SE 03:18:33 10° E visible
22 Oct 9.3 05:08:31 19° WSW 05:14:02 50° S 05:24:45 10° ESE visible
23 Oct 9.7 02:40:14 29° ESE 02:40:14 29° ESE 02:45:04 10° E visible
23 Oct 9.1 04:37:40 30° WSW 04:41:10 50° S 04:51:10 10° ESE visible
24 Oct 10.4 02:09:23 18° ESE 02:09:23 18° ESE 02:11:39 10° E visible
24 Oct 8.7 04:06:49 43° SSW 04:08:21 48° S 04:17:38 10° ESE visible
24 Oct 9.9 06:05:12 10° W 06:12:29 38° SSW 06:22:53 10° SE visible
25 Oct 8.8 03:35:59 46° SSE 03:35:59 46° SSE 03:44:09 10° ESE visible
25 Oct 9.6 05:33:25 13° WSW 05:39:34 39° SSW 05:49:27 10° SE visible
26 Oct 9.4 03:05:09 35° SE 03:05:09 35° SE 03:10:44 10° ESE visible
26 Oct 9.4 05:02:35 22° WSW 05:06:43 39° SSW 05:16:02 10° SE visible
27 Oct 10.1 02:34:21 22° ESE 02:34:21 22° ESE 02:37:24 10° ESE visible
27 Oct 9.0 04:31:47 33° SW 04:33:55 39° SSW 04:42:38 10° SE visible
28 Oct 10.7 02:03:34 12° ESE 02:03:34 12° ESE 02:04:08 10° ESE visible
28 Oct 8.9 04:01:00 39° SSW 04:01:10 39° S 04:09:17 10° SE visible
28 Oct 10.0 05:59:14 10° WSW 06:05:04 23° SSW 06:12:43 10° SSE visible
29 Oct 9.3 03:30:14 34° SSE 03:30:14 34° SSE 03:35:59 10° ESE visible
29 Oct 9.8 05:27:40 14° WSW 05:32:14 24° SSW 05:39:37 10° SSE visible
30 Oct 9.9 02:59:31 23° SE 02:59:31 23° SE 03:02:44 10° ESE visible
30 Oct 9.5 04:56:58 20° SW 04:59:27 25° SSW 05:06:30 10° SSE visible
31 Oct 10.5 02:28:49 13° ESE 02:28:49 13° ESE 02:29:34 10° ESE visible
31 Oct 9.4 04:26:15 25° SSW 04:26:44 25° SSW 04:33:24 10° SSE visible
